Regional Weather Roundup
Issued by NWS

Home | Current Version | Previous Version | Graphics & Text | Print | Product List | Glossary On
Versions: 1 2 3 4 5 6 7 8 9 10 11 12 13 14 15 16 17 18 19 20 21 22 23 24 25 26 27 28 29 30 31 32 33 34 35 36 37 38 39 40 41 42 43 44 45 46 47 48 49 50
000
ASUS43 KIND 312109
RWRIN

WEATHER ROUNDUP FOR INDIANA
NATIONAL WEATHER SERVICE INDIANAPOLIS IN
500 PM EDT MON AUG 31 2015

NOTE: "FAIR" INDICATES FEW OR NO CLOUDS BELOW 12,000 FEET WITH NO
SIGNIFICANT WEATHER AND/OR OBSTRUCTIONS TO VISIBILITY.

* - STATION DOES NOT REPORT WEATHER SUCH AS PRECIPITATION OR FOG.

+ - STATION NOT QUALITY CONTROLLED BY THE NATIONAL WEATHER SERVICE.
    USE DATA WITH CAUTION...ESPECIALLY DEWPOINT AND RELATIVE
    HUMIDITY OBSERVATIONS.

INZ001>003-010>013-019-020-312200-
NORTHWEST INDIANA

CITY           SKY/WX    TMP DP  RH WIND       PRES   REMARKS
GARY /AIRPORT/ MOSUNNY   82  68  61 CALM      30.03F
KNOX *+        FAIR      86  64  48 W6        30.02F
LA PORTE +     FAIR      85  70  60 W6        30.04F
MICHIGAN CITY+ FAIR      81  68  65 N3        30.04F
MONTICELLO +   PTSUNNY   85  70  60 S6        30.03F
RENSSELAER +   FAIR      86  70  58 SW6       30.03F
VALPARAISO     FAIR      85  70  60 VRB5      30.04F

$$

LMZ046-743>745-312200-
SOUTHERN LAKE MICHIGAN

STATION/POSITION TIME  TEMP    WIND        PRES    WAVE
                       AIR SEA DIR/SP/G            HT
                 (UTC) (F)     (DEG/KT/KT) (MB)    (FT)
BURNS HARBOR     2000   76      70/  8/  9 1017.9F
MICHIGAN CITY    2000   72      30/  7/  8   N/A
5NW MICH CITY    2100   74 73   70/  6/  6   N/A     0

$$

INZ004-005-014>016-021>024-312200-
NORTH CENTRAL INDIANA

CITY           SKY/WX    TMP DP  RH WIND       PRES   REMARKS
ELKHART        SUNNY     84  66  54 SW5       30.05F
GOSHEN         FAIR      84  69  60 NW7       30.04F
LOGANSPORT +   FAIR      86  61  42 SW7       30.05F
PERU/GRISSOM     N/A     87  68  54 SW8       30.04F
ROCHESTER +    FAIR      88  68  51 CALM      30.04F
SOUTH BEND     FAIR      83  68  60 W7        30.05F
WARSAW +       FAIR      84  66  54 CALM      30.04F

$$

INZ006>009-017-018-025>027-312200-
NORTHEAST INDIANA

CITY           SKY/WX    TMP DP  RH WIND       PRES   REMARKS
ANGOLA *+      MOSUNNY   88  70  55 W8        30.05F
AUBURN +       FAIR      86  64  48 W3        30.05F
FORT WAYNE     FAIR      86  68  54 W7        30.05F
HUNTINGTON +   PTSUNNY   84  63  49 SW3       30.05S

$$

INZ028-029-035-036-043>045-051>053-312200-
WEST CENTRAL INDIANA

CITY           SKY/WX    TMP DP  RH WIND       PRES   REMARKS
CRAWFORDSVL +  FAIR      84  61  45 SW8       30.06F
GREENCASTLE +  FAIR      82  64  54 S6        30.07F
LAFAYETTE      FAIR      86  66  51 SW10      30.03F
TERRE HAUTE    FAIR      87  67  51 SW8       30.05F

$$

INZ030>032-037>040-046>048-054>057-064-065-312200-
CENTRAL INDIANA

CITY           SKY/WX    TMP DP  RH WIND       PRES   REMARKS
COLUMBUS       MOSUNNY   84  66  54 SW9       30.06F
FRANKFORT +    FAIR      87  68  54 S6        30.07F
GREENWOOD *+   FAIR      86  63  45 W6        30.07F
INDIANAPOLIS   FAIR      85  65  51 SW13      30.06F
-EAGLE CREEK   FAIR      86  67  52 SW8       30.05F
KOKOMO *+      FAIR      88  66  48 W12       30.05F
MARION +       FAIR      84  57  39 NW3       30.06F
MT COMFORT *+  FAIR      88  55  33 SW9       30.07F
SHELBYVILLE    FAIR      88  67  49 W8        30.06F
ZIONSVILLE +   PTSUNNY   87  65  47 SW5       30.07F

$$

INZ033-034-041-042-049-050-058-059-312200-
EAST CENTRAL INDIANA

CITY           SKY/WX    TMP DP  RH WIND       PRES   REMARKS
MUNCIE         FAIR      84  67  56 W8        30.06F

$$

INZ060-061-067>069-081>083-085>088-312200-
SOUTHWEST INDIANA

CITY           SKY/WX    TMP DP  RH WIND       PRES   REMARKS
EVANSVILLE     FAIR      85  66  53 S6        30.06F
HUNTINGBURG *+ FAIR      88  66  48 S5        30.07F
WASHINGTON +   CLOUDY    86  60  40 S6        30.05F

$$

INZ062-063-066-070>080-084-089>092-312200-
SOUTH CENTRAL AND SOUTHEAST INDIANA

CITY           SKY/WX    TMP DP  RH WIND       PRES   REMARKS
BLOOMINGTON    FAIR      85  68  56 SW6       30.08F
MADISON *+     FAIR      88  61  40 W5        30.09F
NORTH VERNON + FAIR      86  64  48 CALM      30.08F
SEYMOUR +      FAIR      90  66  45 CALM      30.06F

$$




USA.gov is the U.S. government's official web portal to all federal, state and local government web resources and services.